Chillicothe, MO

9:51 AM CST on December 13, 2019 (GMT -0600)
Chillicothe

Weather History for KCDJ - August, 2019

Change the Weather History Date:

Thursday, August 15, 2019

  Actual Average (KIRK) Record (KIRK)
Temperature  
Mean Temperature 70 °F -  
Max Temperature 80 °F 84 °F 105 °F (1936)
Min Temperature 61 °F 64 °F 47 °F (1964)
Cooling Degree Days 5    
Growing Degree Days 20 (Base 50)    
Moisture  
Dew Point 65 °F    
Average Humidity 86    
Maximum Humidity 97    
Minimum Humidity 60    
Precipitation  
Precipitation 0.04 in - - ()
Sea Level Pressure  
Sea Level Pressure 30.02 in    
Wind  
Wind Speed 1 mph (SSW)    
Max Wind Speed 8 mph    
Max Gust Speed -    
Averages and records for this station are not official NWS values.
T = Trace of Precipitation, MM = Missing Value Source: NWS Daily Summary

Daily Weather History Graph

Daily Weather History Graph

Search for Another Location

Airport or City:

Astronomy

Aug. 15, 2019 Rise Set
Actual Time 6:26 AM CDT 8:10 PM CDT
Civil Twilight 5:57 AM CDT 8:39 PM CDT
Nautical Twilight 5:22 AM CDT 9:14 PM CDT
Astronomical Twilight 4:44 AM CDT 9:52 PM CDT
Moon 8:39 PM CDT (8/15) 6:21 AM CDT (8/15)
Length of Visible Light 14h 42m
Length of Day
13h 44m
Full, 100% of the Moon is Illuminated
Aug 15
Full
Aug 23
Last Quarter
Aug 30
New
Sep 5
First Quarter
Sep 13
Full

Hourly Weather History & Observations

Time (CDT) Temp. Dew Point Humidity Pressure Visibility Wind Dir Wind Speed Gust Speed Precip Events Conditions
12:52 AM 64.0 °F 62.1 °F 93% 30.08 in - Calm Calm - N/A   Unknown
1:52 AM 64.0 °F 62.1 °F 93% 30.07 in - Calm Calm - N/A   Unknown
2:52 AM 63.0 °F 61.0 °F 93% 30.06 in - Calm Calm - N/A   Unknown
3:52 AM 62.1 °F 61.0 °F 96% 30.06 in - Calm Calm - N/A   Unknown
4:52 AM 61.0 °F 60.1 °F 97% 30.06 in - Calm Calm - N/A   Unknown
5:52 AM 61.0 °F 60.1 °F 97% 30.06 in - Calm Calm - N/A   Unknown
6:52 AM 61.0 °F 60.1 °F 97% 30.06 in - Calm Calm - N/A   Unknown
7:52 AM 64.9 °F 64.0 °F 97% 30.07 in - Calm Calm - N/A   Unknown
8:52 AM 71.1 °F 64.0 °F 78% 30.07 in - Calm Calm - N/A   Unknown
9:52 AM 73.0 °F 64.9 °F 76% 30.05 in - Calm Calm - N/A   Unknown
10:52 AM 75.9 °F 64.9 °F 69% 30.05 in - Variable 3.5 mph - N/A   Unknown
11:52 AM 77.0 °F 63.0 °F 62% 30.04 in - SSW 4.6 mph - N/A   Unknown
12:52 PM 79.0 °F 64.0 °F 60% 30.03 in - Calm Calm - N/A   Unknown
2:52 PM 77.0 °F 66.0 °F 69% 30.04 in - Calm Calm - N/A   Unknown
3:52 PM 73.9 °F 69.1 °F 85% 30.03 in - Calm Calm - 0.01 in   Unknown
4:52 PM 73.9 °F 66.9 °F 79% 29.90 in - SE 8.1 mph - 0.03 in   Unknown
6:52 PM 72.0 °F 69.1 °F 91% 29.94 in - Calm Calm - N/A   Unknown
7:52 PM 71.1 °F 69.1 °F 93% 29.94 in - WNW 3.5 mph - N/A   Unknown
9:52 PM 69.1 °F 68.0 °F 96% 29.96 in - Calm Calm - N/A   Unknown
10:52 PM 69.1 °F 68.0 °F 96% 29.93 in - Calm Calm - N/A   Unknown
11:52 PM 70.0 °F 68.0 °F 93% 29.91 in - Calm Calm - N/A   Unknown